Everett, WA

8:58 PM PST on November 16, 2019 (GMT -0800)
Snohomish County

Weather History for KPAE - August, 2019

Change the Weather History Date:

Tuesday, August 27, 2019

  Actual Average Record
Temperature  
Mean Temperature 68 °F -  
Max Temperature 79 °F 73 °F 85 °F (1984)
Min Temperature 57 °F 52 °F 44 °F (1955)
Cooling Degree Days 2    
Growing Degree Days 18 (Base 50)    
Moisture  
Dew Point 53 °F    
Average Humidity 65    
Maximum Humidity 87    
Minimum Humidity 43    
Precipitation  
Precipitation 0.00 in - - ()
Sea Level Pressure  
Sea Level Pressure 30.03 in    
Wind  
Wind Speed 7 mph (North)    
Max Wind Speed 10 mph    
Max Gust Speed 20 mph    
Visibility 10 miles    
Events      
Averages and records for this station are not official NWS values.
T = Trace of Precipitation, MM = Missing Value Source: NWS Daily Summary

Daily Weather History Graph

Daily Weather History Graph

Search for Another Location

Airport or City:

Astronomy

Aug. 27, 2019 Rise Set
Actual Time 6:20 AM PDT 8:00 PM PDT
Civil Twilight 5:47 AM PDT 8:32 PM PDT
Nautical Twilight 5:07 AM PDT 9:12 PM PDT
Astronomical Twilight 4:24 AM PDT 9:55 PM PDT
Moon 2:34 AM PDT (8/27) 6:40 PM PDT (8/27)
Length of Visible Light 14h 44m
Length of Day
13h 39m
Waning Crescent, 10% of the Moon is Illuminated
Aug 27
Waning Crescent
Aug 30
New
Sep 5
First Quarter
Sep 13
Full
Sep 21
Last Quarter

Hourly Weather History & Observations

Time (PDT) Temp. Dew Point Humidity Pressure Visibility Wind Dir Wind Speed Gust Speed Precip Events Conditions
12:53 AM 60.1 °F 50.0 °F 69% 30.13 in 10.0 mi North 6.9 mph - N/A   Clear
1:53 AM 59.0 °F 52.0 °F 78% 30.12 in 10.0 mi North 4.6 mph - N/A   Clear
2:53 AM 59.0 °F 50.0 °F 72% 30.12 in 10.0 mi NNE 4.6 mph - N/A   Clear
3:53 AM 57.9 °F 52.0 °F 81% 30.12 in 10.0 mi North 4.6 mph - N/A   Clear
4:53 AM 57.0 °F 52.0 °F 83% 30.11 in 10.0 mi North 3.5 mph - N/A   Clear
5:53 AM 57.0 °F 52.0 °F 83% 30.10 in 10.0 mi North 3.5 mph - N/A   Clear
6:53 AM 57.0 °F 53.1 °F 87% 30.10 in 10.0 mi North 4.6 mph - N/A   Clear
7:46 AM 59.0 °F 55.0 °F 87% 30.10 in 10.0 mi Variable 6.9 mph - N/A   Scattered Clouds
7:53 AM 59.0 °F 55.0 °F 87% 30.10 in 10.0 mi North 6.9 mph - N/A   Partly Cloudy
8:53 AM 61.0 °F 55.0 °F 81% 30.10 in 10.0 mi North 6.9 mph - N/A   Clear
9:53 AM 64.0 °F 55.0 °F 73% 30.09 in 10.0 mi North 9.2 mph - N/A   Clear
10:53 AM 68.0 °F 55.0 °F 63% 30.09 in 10.0 mi North 9.2 mph - N/A   Clear
11:53 AM 71.1 °F 57.0 °F 61% 30.07 in 10.0 mi NNW 8.1 mph - N/A   Clear
12:53 PM 73.0 °F 55.0 °F 53% 30.05 in 10.0 mi NNW 10.4 mph 19.6 mph N/A   Clear
1:53 PM 75.9 °F 55.9 °F 50% 30.02 in 10.0 mi NNW 9.2 mph - N/A   Clear
2:53 PM 78.1 °F 55.0 °F 45% 29.99 in 10.0 mi NNW 6.9 mph - N/A   Clear
3:53 PM 77.0 °F 54.0 °F 45% 29.97 in 10.0 mi North 9.2 mph - N/A   Clear
4:53 PM 78.1 °F 54.0 °F 43% 29.95 in 10.0 mi North 10.4 mph - N/A   Clear
5:53 PM 77.0 °F 53.1 °F 43% 29.94 in 10.0 mi NNW 10.4 mph - N/A   Clear
6:53 PM 75.0 °F 52.0 °F 44% 29.92 in 10.0 mi NNW 6.9 mph - N/A   Clear
7:53 PM 71.1 °F 52.0 °F 51% 29.92 in 10.0 mi North 8.1 mph - N/A   Clear
8:53 PM 69.1 °F 51.1 °F 53% 29.91 in 10.0 mi North 6.9 mph - N/A   Clear
9:53 PM 66.9 °F 52.0 °F 59% 29.92 in 10.0 mi North 9.2 mph - N/A   Clear
10:53 PM 69.1 °F 53.1 °F 57% 29.91 in 10.0 mi North 10.4 mph - N/A   Clear
11:53 PM 66.0 °F 54.0 °F 65% 29.91 in 10.0 mi North 6.9 mph - N/A   Clear